Regional Weather Roundup
Issued by NWS

Home | Current Version | Previous Version | Graphics & Text | Print | Product List | Glossary On
Versions: 1 2 3 4 5 6 7 8 9 10 11 12 13 14 15 16 17 18 19 20 21 22 23 24 25 26 27 28 29 30 31 32 33 34 35 36 37 38 39 40 41 42 43 44 45 46 47 48 49 50
000
ASUS43 KLSX 301007
RWRMO

WEATHER SUMMARY FOR MISSOURI
NATIONAL WEATHER SERVICE SPRINGFIELD MO
500 AM CDT TUE SEP 30 2014

NOTE: "FAIR" INDICATES FEW OR NO CLOUDS BELOW 12,000 FEET WITH NO
       SIGNIFICANT WEATHER AND/OR OBSTRUCTIONS TO VISIBILITY.
       CURRENT SKY AND/OR WEATHER CONDITIONS ARE NOT AVAILABLE FOR
       CHILLICOTHE AND FARMINGTON.

MOZ001>031-035>038-043-044-053-054-301100-
...NORTHERN AND WESTERN MISSOURI...

CITY           SKY/WX    TMP DP  RH WIND       PRES   REMARKS
KANSAS CTY INT PTCLDY    63  58  83 SE8       29.92F
KANSAS C DTWN  CLEAR     64  60  87 CALM      29.92F
LEE`S SUMMIT   CLEAR     66  57  72 SE5       29.94F
ST JOSEPH      PTCLDY    58  56  93 CALM      29.92F
CHILLICOTHE      N/A     58  55  90 CALM      29.95F
KIRKSVILLE     CLEAR     57  55  93 NE8       29.97F FOG

$$
MOZ066>068-077>081-088>096-101>105-301100-
...SOUTHWEST MISSOURI...

CITY           SKY/WX    TMP DP  RH WIND       PRES   REMARKS
SPRINGFIELD    CLEAR     60  56  86 S5        29.96F
JOPLIN         CLEAR     61  58  90 SE3       29.95F

$$
MOZ032>034-039>042-045>050-055>058-069>072-301100-
...CENTRAL MISSOURI...

CITY           SKY/WX    TMP DP  RH WIND       PRES   REMARKS
COLUMBIA       CLEAR     63  56  78 S5        29.96F
JEFFERSON CITY PTCLDY    56  55  97 SE3       29.95F FOG
ROLLA          CLEAR     60  55  83 S7        29.96F
SEDALIA        PTCLDY    61  56  83 S3        29.95F
WHITEMAN AFB   PTCLDY    58  56  92 SE2       29.94F
OSAGE BEACH    PTCLDY    55  54  94 CALM      29.96S

$$
MOZ051-052-059>065-301100-
...EAST CENTRAL MISSOURI...

CITY           SKY/WX    TMP DP  RH WIND       PRES   REMARKS
ST LOUIS INTL  CLEAR     64  58  80 CALM      29.96S
SPIRIT OF STL  CLEAR     56  55  97 CALM      29.95S FOG
ST CHARLES     FOG       57  56  96 CALM      29.95S VSB 1/4

$$
MOZ072>076-082>087-097>100-106>115-301100-
...SOUTH CENTRAL AND SOUTHEAST MISSOURI...

CITY           SKY/WX    TMP DP  RH WIND       PRES   REMARKS
CAPE GIRARDEAU FOG       53  52  96 CALM      29.95S VSB 3/4
FARMINGTON     CLEAR     54  52  94 CALM      29.99S
POPLAR BLUFF   CLEAR     56  53  90 NW3       29.94S
WEST PLAINS    CLEAR     57  54  89 CALM      30.00R

$$


USA.gov is the U.S. government's official web portal to all federal, state and local government web resources and services.